Weather History for St. Johns, AZ

Change the Weather History Date:

Friday, May 24, 2013

  Actual Average (KSOW) Record (KSOW)
Temperature  
Mean Temperature 59 °F -  
Max Temperature 86 °F 76 °F 86 °F (2000)
Min Temperature 32 °F 56 °F 32 °F (1968)
Degree Days  
Heating Degree Days 6    
Growing Degree Days 9 (Base 50)    
Moisture  
Dew Point 17 °F    
Average Humidity 17    
Maximum Humidity 38    
Minimum Humidity 5    
Precipitation  
Precipitation 0.00 in - - ()
Sea Level Pressure  
Sea Level Pressure 29.84 in    
Wind  
Wind Speed 6 mph (SW)    
Max Wind Speed 20 mph    
Max Gust Speed 34 mph    
Visibility 10 miles    
Events      
Averages and records for this station are not official NWS values.
T = Trace of Precipitation, MM = Missing Value Source: NWS Daily Summary

Daily Weather History Graph

Daily Weather History Graph

Search for Another Location

Airport:

Trip Planner

Search our weather history database for the weather conditions in past years. The results will help you decide how hot, cold, wet, or windy it might be!

Date:

Astronomy

May. 24, 2013 Rise Set
Actual Time 5:09 AM MST 7:20 PM MST
Civil Twilight 4:40 AM MST 7:48 PM MST
Nautical Twilight 4:05 AM MST 8:23 PM MST
Astronomical Twilight 3:28 AM MST 9:01 PM MST
Moon 7:06 PM MST (5/24) 4:42 AM MST (5/24)
Length of Visible Light 15h 07m
Length of Day
14h 10m
Full, 100% of the Moon is Illuminated
May 24
Full
May 24
Full
May 31
Last Quarter
Jun 8
New
Jun 16
First Quarter

Hourly Weather History & Observations

Time (MST) Temp. Windchill Dew Point Humidity Pressure Visibility Wind Dir Wind Speed Gust Speed Precip Events Conditions
12:54 AM 55.0 °F - 18.0 °F 23% 29.79 in 10.0 mi Calm Calm - N/A   Clear
1:54 AM 51.1 °F - 18.0 °F 27% 29.81 in 10.0 mi WNW 3.5 mph - N/A   Clear
2:54 AM 51.1 °F - 19.9 °F 29% 29.83 in 10.0 mi SE 4.6 mph - N/A   Clear
3:54 AM 50.0 °F - 19.0 °F 29% 29.86 in 10.0 mi Calm Calm - N/A   Clear
4:54 AM 45.0 °F 43.5 °F 17.1 °F 33% 29.89 in 10.0 mi East 3.5 mph - N/A   Clear
5:54 AM 48.0 °F - 21.0 °F 34% 29.90 in 10.0 mi South 5.8 mph - N/A   Clear
6:54 AM 57.0 °F - 21.0 °F 25% 29.90 in 10.0 mi South 4.6 mph - N/A   Clear
7:54 AM 66.0 °F - 23.0 °F 20% 29.90 in 10.0 mi NNE 6.9 mph - N/A   Clear
8:54 AM 71.1 °F - 21.0 °F 15% 29.88 in 10.0 mi NNE 10.4 mph 20.7 mph N/A   Clear
9:54 AM 73.0 °F - 23.0 °F 15% 29.88 in 10.0 mi Calm Calm - N/A   Clear
10:54 AM 78.1 °F - 21.9 °F 12% 29.86 in 10.0 mi WNW 8.1 mph - N/A   Clear
11:54 AM 79.0 °F - 21.0 °F 12% 29.83 in 10.0 mi Calm Calm - N/A   Clear
12:54 PM 82.9 °F - 18.0 °F 9% 29.81 in 10.0 mi East 4.6 mph - N/A   Clear
1:54 PM 86.0 °F - 14.0 °F 7% 29.78 in 10.0 mi West 11.5 mph 20.7 mph N/A   Clear
2:54 PM 86.0 °F - 12.9 °F 7% 29.77 in 10.0 mi SW 19.6 mph 34.5 mph N/A   Clear
3:54 PM 84.9 °F - 9.0 °F 6% 29.77 in 10.0 mi WSW 19.6 mph 29.9 mph N/A   Clear
4:54 PM 82.9 °F - 12.0 °F 7% 29.80 in 10.0 mi WSW 19.6 mph 32.2 mph N/A   Clear
5:54 PM 81.0 °F - 12.9 °F 8% 29.80 in 10.0 mi WSW 19.6 mph 27.6 mph N/A   Clear
6:54 PM 78.1 °F - 15.1 °F 9% 29.79 in 10.0 mi WSW 16.1 mph 24.2 mph N/A   Clear
7:54 PM 73.0 °F - 15.1 °F 11% 29.80 in 10.0 mi WSW 13.8 mph - N/A   Clear
8:54 PM 66.9 °F - 16.0 °F 14% 29.83 in 10.0 mi WSW 10.4 mph - N/A   Clear
9:54 PM 66.0 °F - 15.1 °F 14% 29.83 in 10.0 mi WSW 12.7 mph - N/A   Clear
10:54 PM 63.0 °F - 15.1 °F 16% 29.83 in 10.0 mi South 3.5 mph - N/A   Clear
11:54 PM 59.0 °F - 16.0 °F 19% 29.85 in 10.0 mi South 5.8 mph - N/A   Clear